AAL2126 KLGA-KBOS

Flight info

Callsign AAL2126
Flight time 0h 42m
Altitude 21000
Route MERIT ROBUC3
Aircraft A319/M-SDE3FGHIRWY/LB1

Departure

Time 2026-05-04 23:29
Airport LaGuardia Airport (KLGA)

Arrival

Time 2026-05-05 00:12
Airport Boston Logan International Airport (KBOS)
Time Latitude Longitude Altitude Speed Heading
2026-05-04 22:50 40.77610 -73.87413 21 ft 0 kts 133°
2026-05-04 23:19 40.77622 -73.87429 21 ft 4 kts 130°
2026-05-04 23:19 40.77634 -73.87457 23 ft 4 kts 88°
2026-05-04 23:19 40.77625 -73.87485 21 ft 3 kts 34°
2026-05-04 23:20 40.77623 -73.87488 21 ft 0 kts 32°
2026-05-04 23:25 40.77625 -73.87485 20 ft 5 kts 32°
2026-05-04 23:25 40.77685 -73.87442 20 ft 11 kts 14°
2026-05-04 23:25 40.77759 -73.87421 17 ft 13 kts 61°
2026-05-04 23:25 40.77773 -73.87302 15 ft 4 kts 90°
2026-05-04 23:26 40.77805 -73.87264 13 ft 10 kts 19°
2026-05-04 23:26 40.77860 -73.87316 14 ft 11 kts 300°
2026-05-04 23:26 40.77899 -73.87398 15 ft 11 kts 303°
2026-05-04 23:26 40.77940 -73.87481 17 ft 11 kts 302°
2026-05-04 23:27 40.77984 -73.87572 17 ft 12 kts 302°
2026-05-04 23:27 40.78033 -73.87675 15 ft 14 kts 302°
2026-05-04 23:27 40.78083 -73.87781 17 ft 14 kts 302°
2026-05-04 23:27 40.78138 -73.87857 20 ft 3 kts 346°
2026-05-04 23:28 40.78145 -73.87859 21 ft 4 kts 346°
2026-05-04 23:28 40.78202 -73.87852 13 ft 11 kts 40°
2026-05-04 23:28 40.78185 -73.87750 11 ft 15 kts 124°
2026-05-04 23:29 40.78041 -73.87458 14 ft 77 kts 122°
2026-05-04 23:29 40.77628 -73.86588 45 ft 140 kts 126°
2026-05-04 23:29 40.77093 -73.85471 607 ft 146 kts 126°
2026-05-04 23:29 40.76539 -73.84290 1060 ft 165 kts 128°
2026-05-04 23:30 40.75894 -73.82907 1538 ft 188 kts 127°
2026-05-04 23:30 40.75486 -73.81145 2051 ft 221 kts 89°
2026-05-04 23:30 40.76098 -73.79187 2632 ft 245 kts 49°
2026-05-04 23:30 40.77367 -73.77641 3494 ft 251 kts 35°
2026-05-04 23:31 40.78803 -73.76313 4454 ft 255 kts 31°
2026-05-04 23:31 40.80347 -73.75130 4843 ft 261 kts 18°
2026-05-04 23:31 40.82164 -73.74252 4982 ft 281 kts 17°
2026-05-04 23:31 40.83963 -73.73178 5088 ft 291 kts 32°
2026-05-04 23:32 40.85542 -73.71487 6028 ft 295 kts 37°
2026-05-04 23:32 40.87124 -73.69768 7197 ft 294 kts 36°
2026-05-04 23:32 40.88715 -73.68061 8274 ft 295 kts 36°
2026-05-04 23:32 40.90315 -73.66342 9350 ft 297 kts 35°
2026-05-04 23:33 40.91924 -73.64606 10327 ft 300 kts 35°
2026-05-04 23:33 40.93554 -73.62841 11202 ft 305 kts 35°
2026-05-04 23:33 40.95211 -73.61042 12052 ft 311 kts 35°
2026-05-04 23:33 40.96902 -73.59203 12912 ft 317 kts 34°
2026-05-04 23:34 40.98620 -73.57333 13765 ft 322 kts 34°
2026-05-04 23:34 41.00363 -73.55432 14529 ft 326 kts 34°
2026-05-04 23:34 41.02125 -73.53504 15328 ft 330 kts 35°
2026-05-04 23:34 41.03924 -73.51534 15817 ft 346 kts 35°
2026-05-04 23:35 41.05844 -73.49439 16005 ft 369 kts 35°
2026-05-04 23:35 41.07875 -73.47222 16411 ft 383 kts 36°
2026-05-04 23:35 41.09945 -73.44949 16875 ft 389 kts 36°
2026-05-04 23:35 41.12027 -73.42649 16990 ft 389 kts 36°
2026-05-04 23:36 41.14088 -73.40371 17014 ft 390 kts 36°
2026-05-04 23:36 41.16166 -73.38075 17018 ft 389 kts 36°
2026-05-04 23:36 41.18278 -73.35747 17017 ft 389 kts 36°
2026-05-04 23:36 41.20339 -73.33483 17024 ft 389 kts 36°
2026-05-04 23:37 41.22452 -73.31159 17017 ft 389 kts 36°
2026-05-04 23:37 41.24541 -73.28855 17016 ft 389 kts 36°
2026-05-04 23:37 41.26624 -73.26557 17018 ft 389 kts 36°
2026-05-04 23:37 41.28709 -73.24259 17018 ft 389 kts 36°
2026-05-04 23:38 41.30809 -73.21942 17329 ft 394 kts 36°
2026-05-04 23:38 41.32920 -73.19604 18157 ft 396 kts 36°
2026-05-04 23:38 41.35008 -73.17178 18814 ft 402 kts 41°
2026-05-04 23:38 41.36781 -73.14272 19503 ft 409 kts 53°
2026-05-04 23:39 41.38108 -73.10878 20169 ft 417 kts 66°
2026-05-04 23:39 41.38909 -73.07145 20775 ft 424 kts 78°
2026-05-04 23:39 41.39348 -73.03251 20978 ft 425 kts 80°
2026-05-04 23:39 41.39773 -72.99312 21028 ft 432 kts 80°
2026-05-04 23:40 41.40199 -72.95335 21029 ft 435 kts 80°
2026-05-04 23:40 41.40624 -72.91342 20904 ft 435 kts 80°
2026-05-04 23:40 41.41048 -72.87360 20905 ft 434 kts 80°
2026-05-04 23:40 41.41473 -72.83376 20903 ft 435 kts 80°
2026-05-04 23:41 41.41897 -72.79385 20908 ft 435 kts 80°
2026-05-04 23:41 41.42317 -72.75395 20908 ft 435 kts 80°
2026-05-04 23:41 41.42732 -72.71457 20929 ft 435 kts 80°
2026-05-04 23:41 41.43153 -72.67469 20932 ft 435 kts 80°
2026-05-04 23:42 41.43571 -72.63471 20927 ft 434 kts 80°
2026-05-04 23:42 41.43992 -72.59433 20935 ft 435 kts 80°
2026-05-04 23:42 41.44404 -72.55498 20939 ft 435 kts 80°
2026-05-04 23:42 41.44819 -72.51503 20939 ft 435 kts 80°
2026-05-04 23:43 41.45229 -72.47521 20939 ft 435 kts 80°
2026-05-04 23:43 41.45636 -72.43524 20935 ft 434 kts 80°
2026-05-04 23:43 41.46044 -72.39526 20937 ft 434 kts 80°
2026-05-04 23:43 41.46454 -72.35531 20928 ft 434 kts 80°
2026-05-04 23:44 41.46862 -72.31541 20930 ft 434 kts 80°
2026-05-04 23:44 41.47265 -72.27552 20926 ft 434 kts 80°
2026-05-04 23:44 41.47693 -72.23570 20916 ft 433 kts 77°
2026-05-04 23:44 41.48167 -72.20989 20916 ft 431 kts 70°
2026-05-04 23:45 41.49254 -72.17293 20810 ft 424 kts 61°
2026-05-04 23:45 41.50550 -72.13779 20550 ft 419 kts 60°
2026-05-04 23:45 41.51838 -72.10288 20307 ft 417 kts 60°
2026-05-04 23:45 41.53117 -72.06816 20056 ft 416 kts 60°
2026-05-04 23:46 41.54391 -72.03345 19803 ft 415 kts 61°
2026-05-04 23:46 41.55646 -71.99882 19556 ft 414 kts 62°
2026-05-04 23:46 41.56819 -71.96380 19317 ft 414 kts 64°
2026-05-04 23:46 41.57907 -71.92821 19085 ft 413 kts 66°
2026-05-04 23:47 41.58942 -71.89250 18840 ft 412 kts 66°
2026-05-04 23:47 41.59959 -71.85680 18609 ft 410 kts 67°
2026-05-04 23:47 41.60973 -71.82121 18376 ft 409 kts 66°
2026-05-04 23:47 41.61994 -71.78576 18135 ft 408 kts 66°
2026-05-04 23:48 41.63026 -71.75049 17860 ft 407 kts 66°
2026-05-04 23:48 41.64062 -71.71535 17591 ft 405 kts 66°
2026-05-04 23:48 41.65092 -71.68047 17317 ft 400 kts 66°
2026-05-04 23:48 41.66094 -71.64637 17050 ft 389 kts 66°
2026-05-04 23:49 41.67070 -71.61309 16793 ft 379 kts 66°
2026-05-04 23:49 41.68024 -71.58068 16528 ft 370 kts 66°
2026-05-04 23:49 41.68958 -71.54895 16265 ft 362 kts 66°
2026-05-04 23:49 41.69870 -71.51787 16011 ft 357 kts 66°
2026-05-04 23:50 41.70773 -71.48697 15771 ft 355 kts 66°
2026-05-04 23:50 41.71669 -71.45625 15519 ft 354 kts 66°
2026-05-04 23:50 41.72631 -71.42609 15267 ft 351 kts 60°
2026-05-04 23:50 41.73835 -71.39771 15023 ft 349 kts 58°
2026-05-04 23:51 41.75044 -71.36954 14780 ft 348 kts 58°
2026-05-04 23:51 41.76246 -71.34141 14537 ft 347 kts 58°
2026-05-04 23:51 41.77443 -71.31335 14296 ft 346 kts 58°
2026-05-04 23:51 41.78635 -71.28540 14061 ft 345 kts 58°
2026-05-04 23:52 41.79826 -71.25746 13817 ft 344 kts 58°
2026-05-04 23:52 41.81010 -71.22968 13558 ft 341 kts 58°
2026-05-04 23:52 41.82171 -71.20236 13321 ft 334 kts 58°
2026-05-04 23:52 41.83302 -71.17575 12938 ft 332 kts 58°
2026-05-04 23:53 41.84440 -71.14896 12635 ft 328 kts 58°
2026-05-04 23:53 41.85562 -71.12253 12287 ft 325 kts 59°
2026-05-04 23:53 41.86680 -71.09640 11897 ft 320 kts 58°
2026-05-04 23:53 41.87792 -71.07067 11774 ft 318 kts 58°
2026-05-04 23:54 41.88901 -71.04505 11642 ft 317 kts 58°
2026-05-04 23:54 41.90004 -71.01950 11499 ft 316 kts 58°
2026-05-04 23:54 41.91108 -70.99401 11358 ft 315 kts 58°
2026-05-04 23:54 41.92207 -70.96866 11218 ft 314 kts 57°
2026-05-04 23:55 41.93303 -70.94336 11067 ft 313 kts 58°
2026-05-04 23:55 41.94392 -70.91810 10941 ft 312 kts 58°
2026-05-04 23:55 41.96555 -70.86771 10649 ft 310 kts 57°
2026-05-04 23:56 41.97631 -70.84265 10512 ft 308 kts 57°
2026-05-04 23:56 41.98685 -70.81802 10374 ft 308 kts 57°
2026-05-04 23:56 41.99761 -70.79283 10239 ft 306 kts 57°
2026-05-04 23:56 42.00839 -70.76808 10123 ft 306 kts 53°
2026-05-04 23:57 42.02142 -70.74626 9856 ft 302 kts 45°
2026-05-04 23:57 42.03540 -70.72534 9540 ft 299 kts 44°
2026-05-04 23:57 42.04933 -70.70453 9251 ft 298 kts 44°
2026-05-04 23:57 42.06316 -70.68387 8967 ft 297 kts 44°
2026-05-04 23:58 42.07704 -70.66318 8688 ft 297 kts 44°
2026-05-04 23:58 42.09089 -70.64254 8408 ft 296 kts 44°
2026-05-04 23:58 42.10632 -70.62455 8127 ft 290 kts 29°
2026-05-04 23:58 42.12420 -70.61259 7853 ft 285 kts 14°
2026-05-04 23:59 42.14326 -70.60642 7588 ft 281 kts
2026-05-04 23:59 42.16248 -70.60120 7342 ft 281 kts
2026-05-04 23:59 42.17839 -70.59679 7102 ft 280 kts
2026-05-04 23:59 42.19761 -70.59139 6809 ft 279 kts
2026-05-05 00:00 42.21635 -70.58613 6541 ft 278 kts
2026-05-05 00:00 42.22274 -70.58434 6468 ft 278 kts
2026-05-05 00:00 42.25424 -70.57551 6000 ft 277 kts
2026-05-05 00:00 42.27303 -70.57027 5735 ft 277 kts
2026-05-05 00:01 42.29022 -70.56547 5500 ft 277 kts
2026-05-05 00:01 42.30917 -70.56272 5237 ft 270 kts 352°
2026-05-05 00:01 42.32619 -70.56701 5062 ft 262 kts 335°
2026-05-05 00:01 42.34212 -70.57811 5034 ft 255 kts 319°
2026-05-05 00:02 42.35521 -70.59404 5037 ft 253 kts 311°
2026-05-05 00:02 42.36777 -70.61061 5037 ft 252 kts 311°
2026-05-05 00:02 42.38034 -70.62710 5031 ft 252 kts 311°
2026-05-05 00:02 42.39291 -70.64355 5030 ft 251 kts 311°
2026-05-05 00:03 42.40550 -70.66000 5022 ft 252 kts 311°
2026-05-05 00:03 42.41812 -70.67653 5015 ft 252 kts 311°
2026-05-05 00:03 42.43069 -70.69306 5015 ft 252 kts 311°
2026-05-05 00:03 42.44328 -70.70962 5016 ft 252 kts 311°
2026-05-05 00:04 42.45587 -70.72618 5014 ft 252 kts 311°
2026-05-05 00:04 42.46840 -70.74271 5014 ft 251 kts 311°
2026-05-05 00:04 42.48079 -70.75910 4683 ft 248 kts 311°
2026-05-05 00:04 42.49322 -70.77552 4177 ft 249 kts 310°
2026-05-05 00:05 42.50555 -70.79162 3690 ft 250 kts 311°
2026-05-05 00:05 42.51821 -70.80796 3199 ft 252 kts 310°
2026-05-05 00:05 42.53101 -70.82429 3010 ft 243 kts 310°
2026-05-05 00:05 42.54292 -70.83910 3008 ft 221 kts 311°
2026-05-05 00:06 42.55375 -70.85211 3008 ft 201 kts 311°
2026-05-05 00:06 42.56339 -70.86441 2998 ft 177 kts 296°
2026-05-05 00:06 42.56672 -70.87915 2862 ft 161 kts 265°
2026-05-05 00:06 42.56484 -70.89369 2744 ft 157 kts 246°
2026-05-05 00:07 42.55866 -70.90556 2780 ft 159 kts 218°
2026-05-05 00:07 42.54825 -70.91118 2724 ft 162 kts 199°
2026-05-05 00:07 42.53759 -70.91534 2927 ft 158 kts 201°
2026-05-05 00:07 42.52745 -70.92120 2962 ft 158 kts 219°
2026-05-05 00:08 42.51781 -70.92857 2898 ft 160 kts 207°
2026-05-05 00:08 42.50731 -70.93347 2766 ft 159 kts 202°
2026-05-05 00:08 42.49683 -70.93806 2669 ft 155 kts 204°
2026-05-05 00:08 42.48679 -70.94358 2556 ft 159 kts 207°
2026-05-05 00:09 42.47670 -70.94971 2249 ft 158 kts 206°
2026-05-05 00:09 42.46651 -70.95495 2030 ft 154 kts 202°
2026-05-05 00:09 42.45641 -70.95935 1835 ft 151 kts 202°
2026-05-05 00:09 42.44673 -70.96398 1606 ft 143 kts 205°
2026-05-05 00:10 42.43785 -70.96888 1437 ft 133 kts 205°
2026-05-05 00:10 42.42952 -70.97320 1313 ft 123 kts 203°
2026-05-05 00:10 42.42156 -70.97696 1060 ft 119 kts 203°
2026-05-05 00:10 42.41415 -70.98091 879 ft 114 kts 206°
2026-05-05 00:11 42.40644 -70.98467 739 ft 121 kts 200°
2026-05-05 00:11 42.39840 -70.98868 648 ft 125 kts 204°
2026-05-05 00:11 42.39023 -70.99278 413 ft 125 kts 200°
2026-05-05 00:11 42.38231 -70.99662 254 ft 116 kts 199°
2026-05-05 00:12 42.37492 -71.00026 97 ft 109 kts 198°
2026-05-05 00:12 42.36821 -71.00350 27 ft 92 kts 199°
2026-05-05 00:12 42.36358 -71.00571 27 ft 46 kts 200°
2026-05-05 00:12 42.36140 -71.00682 26 ft 30 kts 200°
2026-05-05 00:13 42.35974 -71.00826 27 ft 21 kts 230°
2026-05-05 00:13 42.35890 -71.00962 29 ft 19 kts 230°
2026-05-05 00:13 42.35832 -71.01096 30 ft 17 kts 265°
2026-05-05 00:13 42.35845 -71.01243 26 ft 15 kts 278°
2026-05-05 00:14 42.35860 -71.01390 26 ft 17 kts 278°
2026-05-05 00:14 42.35886 -71.01573 26 ft 21 kts 279°
2026-05-05 00:14 42.35911 -71.01759 27 ft 21 kts 281°
2026-05-05 00:14 42.35968 -71.01931 27 ft 20 kts 301°
2026-05-05 00:15 42.36037 -71.02086 26 ft 16 kts 301°
2026-05-05 00:15 42.36068 -71.02158 27 ft 0 kts 301°
2026-05-05 00:15 42.36073 -71.02163 28 ft 1 kts 324°
2026-05-05 00:15 42.36090 -71.02146 27 ft 5 kts 40°
2026-05-05 00:16 42.36118 -71.02121 27 ft 4 kts 24°
2026-05-05 00:16 42.36123 -71.02118 26 ft 0 kts 25°